Weather History for Teterboro, NJ

Change the Weather History Date:

Tuesday, January 7, 2014

  Actual Average Record
Temperature  
Mean Temperature 10 °F -  
Max Temperature 15 °F 38 °F 61 °F (2008)
Min Temperature 6 °F 25 °F 6 °F (2014)
Degree Days  
Heating Degree Days 54    
Moisture  
Dew Point -10 °F    
Average Humidity 41    
Maximum Humidity 46    
Minimum Humidity 35    
Precipitation  
Precipitation 0.00 in - - ()
Sea Level Pressure  
Sea Level Pressure 30.16 in    
Wind  
Wind Speed 18 mph (West)    
Max Wind Speed 22 mph    
Max Gust Speed 33 mph    
Visibility 10 miles    
Events      
Averages and records for this station are not official NWS values.
T = Trace of Precipitation, MM = Missing Value Source: NWS Daily Summary

Daily Weather History Graph

Daily Weather History Graph

Search for Another Location

Airport:

Trip Planner

Search our weather history database for the weather conditions in past years. The results will help you decide how hot, cold, wet, or windy it might be!

Date:

Astronomy

Jan. 07, 2014 Rise Set
Actual Time 7:20 AM EST 4:44 PM EST
Civil Twilight 6:50 AM EST 5:15 PM EST
Nautical Twilight 6:15 AM EST 5:49 PM EST
Astronomical Twilight 5:42 AM EST 6:22 PM EST
Moon 11:04 AM EST (1/7) No Moon Set
Length of Visible Light 10h 25m
Length of Day
9h 23m
Waxing Crescent, 45% of the Moon is Illuminated
Jan 7
Waxing Crescent
Jan 7
First Quarter
Jan 15
Full
Jan 24
Last Quarter
Jan 30
New

Hourly Weather History & Observations

Time (EST) Temp. Windchill Dew Point Humidity Pressure Visibility Wind Dir Wind Speed Gust Speed Precip Events Conditions
12:51 AM 15.1 °F -2.9 °F -5.1 °F 41% 29.80 in 10.0 mi West 21.9 mph 32.2 mph N/A   Clear
1:51 AM 14.0 °F -2.0 °F -5.1 °F 43% 29.84 in 10.0 mi West 16.1 mph 27.6 mph N/A   Clear
2:51 AM 12.0 °F -6.0 °F -7.1 °F 42% 29.91 in 10.0 mi West 19.6 mph 28.8 mph N/A   Clear
3:51 AM 10.0 °F -9.5 °F -9.0 °F 42% 29.94 in 10.0 mi West 21.9 mph 32.2 mph N/A   Clear
4:51 AM 9.0 °F -9.0 °F -9.9 °F 42% 29.97 in 10.0 mi West 17.3 mph 27.6 mph N/A   Clear
5:51 AM 7.0 °F -13.1 °F -11.0 °F 44% 30.02 in 10.0 mi WNW 20.7 mph 32.2 mph N/A   Clear
6:51 AM 6.1 °F -13.3 °F -11.9 °F 44% 30.06 in 10.0 mi West 18.4 mph 27.6 mph N/A   Clear
7:51 AM 6.1 °F -13.8 °F -13.0 °F 41% 30.11 in 10.0 mi West 19.6 mph 26.5 mph N/A   Clear
8:51 AM 6.1 °F -14.8 °F -14.1 °F 39% 30.16 in 10.0 mi West 21.9 mph 31.1 mph N/A   Clear
9:51 AM 7.0 °F -13.6 °F -14.1 °F 38% 30.20 in 10.0 mi West 21.9 mph 33.4 mph N/A   Clear
10:51 AM 8.1 °F -12.2 °F -14.1 °F 36% 30.21 in 10.0 mi West 21.9 mph 32.2 mph N/A   Clear
11:51 AM 9.0 °F -10.0 °F -13.0 °F 36% 30.17 in 10.0 mi WNW 19.6 mph 32.2 mph N/A   Clear
12:51 PM 10.0 °F -6.5 °F -11.9 °F 37% 30.17 in 10.0 mi West 15.0 mph 26.5 mph N/A   Clear
1:51 PM 10.9 °F -7.9 °F -11.0 °F 37% 30.18 in 10.0 mi West 20.7 mph 25.3 mph N/A   Clear
2:51 PM 12.0 °F -6.0 °F -11.0 °F 35% 30.22 in 10.0 mi West 19.6 mph 31.1 mph N/A   Clear
3:51 PM 10.9 °F -5.4 °F -11.0 °F 37% 30.23 in 10.0 mi West 15.0 mph 25.3 mph N/A   Clear
4:51 PM 10.0 °F -5.9 °F -9.9 °F 40% 30.26 in 10.0 mi WSW 13.8 mph 18.4 mph N/A   Clear
5:51 PM 10.0 °F -7.1 °F -9.9 °F 40% 30.27 in 10.0 mi West 16.1 mph 19.6 mph N/A   Clear
6:51 PM 10.0 °F -5.9 °F -9.0 °F 42% 30.29 in 10.0 mi WSW 13.8 mph 21.9 mph N/A   Clear
7:51 PM 10.0 °F -3.7 °F -9.0 °F 42% 30.32 in 10.0 mi WSW 10.4 mph - N/A   Clear
8:51 PM 10.0 °F -1.9 °F -8.0 °F 44% 30.34 in 10.0 mi West 8.1 mph - N/A   Clear
9:51 PM 10.0 °F -4.5 °F -8.0 °F 44% 30.37 in 10.0 mi WSW 11.5 mph - N/A   Clear
10:51 PM 10.0 °F -5.2 °F -8.0 °F 44% 30.38 in 10.0 mi WSW 12.7 mph - N/A   Clear
11:51 PM 10.0 °F -1.9 °F -7.1 °F 46% 30.40 in 10.0 mi WSW 8.1 mph - N/A   Clear